{"data":{"norad_id":25989,"intl_designator":"1999-066A","name":"XMM-NEWTON","alt_names":[],"object_type":"PAYLOAD","status":"ACTIVE","operator":null,"country":"ESA","launch_date":"1999-12-10","launch_site_code":"FRGUI","launch_vehicle":null,"mission":null,"orbit_class":"UNKNOWN","rcs_meters":10.0237,"size_class":null,"mass_kg":null,"dimensions":null,"purposes":["science"],"wikipedia_slug":null,"has_3d_model":false,"image_url":null,"decayed_at":null,"tle_current":{"epoch":"2026-05-25T09:52:50.022048Z","epoch_age_seconds":50210,"freshness":"FRESH","line1":"1 25989U 99066A   26145.41169007 -.00000050  00000+0  00000+0 0  9993","line2":"2 25989  64.6028 283.2744 4679706  65.3215   0.1398  0.50128996 22883","mean_motion":0.50128996,"eccentricity":0.4679706,"inclination_deg":64.6028,"raan_deg":283.2744,"arg_perigee_deg":65.3215,"mean_anomaly_deg":0.1398,"bstar":0,"rev_number":2288,"period_min":2872.5889503153,"perigee_km":29235.101576949,"apogee_km":91885.581512074,"semimajor_km":66938.478544512,"source":"CELESTRAK","updated_at":"2026-05-25T13:38:24.634777Z"}}}